Skip Page Navigation
NASA JPL Caltech
NASA Logo - Jet Propulsion Laboratory + View the NASA Portal
+ Center for Near-Earth Object Studies
JPL Home Earth Solar System Stars & Galaxies Technology
JPL Solar System Dynamics
BODIES ORBITS EPHEMERIDES TOOLS PHYSICAL DATA DISCOVERY FAQ SITE MAP
JPL Small-Body Database Browser
Search: [ help ]  
71590 (2000 DN71)
Classification: Main-belt Asteroid          SPK-ID: 2071590
Ephemeris | Orbit Diagram | Orbital Elements | Mission Design | Physical Parameters | Discovery Circumstances | Close-Approach Data ]

[ hide orbit diagram ]

For accurate long-term ephemerides, please instead use our Horizons system.This orbit viewer was implemented using two-body methods, and hence should not be used for determining accurate long-term trajectories (over several years or decades) or planetary encounter circumstances.


[ revert to old Java-based viewer ]

Orbital Elements at Epoch 2459000.5 (2020-May-31.0) TDB
Reference: JPL 28 (heliocentric ecliptic J2000)
 Element Value Uncertainty (1-sigma)   Units 
e .1314667955099651 3.6172e-08  
a 3.096720562047798 1.8995e-08 au
q 2.689604633165556 1.1665e-07 au
i .4198241947443082 4.2693e-06 deg
node 217.3624793621991 0.00057389 deg
peri 193.0899679991527 0.00057421 deg
M 1.182141444158548 1.7434e-05 deg
tp 2458993.963904394241
(2020-May-24.46390439)
9.6382e-05 TDB
period 1990.450829467447
5.45
1.8314e-05
5.014e-08
d
yr
n .1808635484335574 1.6641e-09 deg/d
Q 3.50383649093004 2.1492e-08 au
  Orbit Determination Parameters
   # obs. used (total)      908  
   data-arc span      9884 days (27.06 yr)  
   first obs. used      1992-11-16  
   last obs. used      2019-12-09  
   planetary ephem.      DE431  
   SB-pert. ephem.      SB431-N16  
   condition code      0  
   norm. resid. RMS      .50552  
   source      ORB  
   producer      Otto Matic  
   solution date      2020-Feb-23 16:28:39  

Additional Information
 Earth MOID = 1.70016 au 
 Jupiter MOID = 1.85741 au 
 T_jup = 3.210 
[ show covariance matrix ]

Ephemeris | Orbit Diagram | Orbital Elements | Mission Design | Physical Parameters | Discovery Circumstances | Close-Approach Data ]

Physical Parameter Table
Parameter Symbol Value Units Sigma Reference Notes
absolute magnitude H 14.6   n/a MPO493368  
diameter diameter 6.699 km 0.196 urn:nasa:pds:neowise_diameters_albedos::2.0[mainbelt] (http://adsabs.harvard.edu/abs/2011ApJ...741...68M)  
geometric albedo albedo 0.068   0.011 urn:nasa:pds:neowise_diameters_albedos::2.0[mainbelt] (http://adsabs.harvard.edu/abs/2011ApJ...741...68M)  

71590 (2000 DN71)          Discovered 2000-Feb-29 by LINEAR at Socorro
Reference: 20031109/Numbers.arcLast Updated: 2004-04-19

[ show close-approach data ]
Alternate Designations
 2000 DN71 = 1998 XT58 
Ephemeris | Orbit Diagram | Orbital Elements | Mission Design | Physical Parameters | Discovery Circumstances | Close-Approach Data ]
ABOUT SSD CREDITS/AWARDS PRIVACY/COPYRIGHT GLOSSARY LINKS
FirstGov 2020-Jul-12 04:20 UT
(server date/time)  
NASA Home Page
Site Manager:   Ryan S. Park
Webmaster  Alan B. Chamberlin